Tracking 21474 objects as of 25-Sep-2020
HD Live streaming from Space Station
objects crossing your sky now

COSMOS 2222

Track COSMOS 2222 now!
COSMOS 2222 is classified as:


NORAD ID: 22238
Int'l Code: 1992-081A
Perigee: 950.7 km
Apogee: 39,391.4 km
Inclination: 63.6 °
Period: 717.2 minutes
Semi major axis: 26542 km
RCS: 13.6381 m2 (large)
Launch date: November 25, 1992
Source: Commonwealth of Independent States (former USSR) (CIS)
Launch site: PLESETSK MISSILE AND SPACE COMPLEX (PKMTR)
aabbcc
Your satellite tracking list
Your tracking list is empty




NASA's NSSDC Master Catalog

Two Line Element Set (TLE):
1 22238U 92081A   20269.34514971 -.00001390 +00000-0 -50124-2 0  9999
2 22238 063.5944 029.3627 7241476 200.6602 099.8927 02.00770889203938
Source of the keplerian elements: AFSPC